Вернуться в каталог

DELTA 2 R/B(2)

АктивенGTO
NORAD 24810·ROCKET BODY·🇺🇸 United States

Запущен May 20, 1997 с Cape Canaveral Space Force Station

Loading…

TLE

УстаревшееSource: Space-Track

Эпоха: Sep 13, 2026, 02:15 UTC

1 24810U 97025C   26256.09399390 -.00000070  00000-0  00000-0 0  9999
2 24810  18.8210 170.7624 6959959 235.2905 341.1953  2.16109454231545

Отслеживайте DELTA 2 R/B(2) в реальном времени с AllMySat

Download on the App Store